Weather in Bokovo-Khrustalne

Ukraine / Luhansk Region     48°09′37″N   38°50′19″E
temp.,
°C
wind,
m/s
gust,
m/s
humid.,
%
clouds,
%
prec.,
mm/h
press.,
hPa
HPBL,
m
16 may, mon
mon1600:00+9w410875 0.0 1013227
03:00+8w411921 0.0 1012257
06:00+9wnw512875 0.0 1013455
09:00+13wnw711670 0.0 10131196
12:00+16nw8104518 0.0 10142224
15:00+17nw7103998 0.0 10142733
18:00+15nw685152 0.0 10141848
21:00+10w366514 0.0 101684
17 may, tue
tue1700:00+8wsw3774100 0.0 1015108
03:00+8w398288 0.2 1015205
06:00+8wnw398471 0.0 1015332
09:00+13wnw610470 0.0 10141430
12:00+15wnw694195 0.0 10142511
15:00+14wnw694877 0.0 10131675
18:00+14wnw6115620 0.1 10121846
21:00+10w227271 0.5 101226
18 may, wed
wed1800:00+9w128147 0.3 101143
03:00+9w41183100 0.7 1011557
06:00+9nw3784100 0.1 1010279
09:00+10nw4660100 0.1 1010679
12:00+13wnw4643100 0.0 10102027
15:00+14nw5640100 0.0 10102145
18:00+12nnw676176 0.1 1011876
21:00+7nnw41085100 0.4 1014270
19 may, thu
thu1900:00+6nw4109414 0.0 1015241
03:00+5nnw411955 0.0 1016302
06:00+6nw39925 0.0 1019273
09:00+12nw56685 0.0 1020879
12:00+13nw6756100 0.4 10201834
15:00+14nw7951100 0.4 10201907
18:00+13wnw5959100 0.0 10201185
21:00+11w51267100 0.0 1021414
20 may, fri
fri2000:00+10w41076100 0.0 1019266
03:00+9wnw3984100 0.2 1019381
06:00+9nw3787100 0.2 1019461
09:00+9nw3693100 1.1 1020499
12:00+12n3367100 0.4 10201255
15:00+14w235375 0.5 10191627
18:00+14wnw245299 0.0 10181340
21:00+11sw3567100 0.0 101799